Manhattan, KS

12:12 AM CDT on August 23, 2017 (GMT -0500)
Manhattan Regional

Weather History for KMHK - June, 2013

Change the Weather History Date:

Saturday, June 22, 2013

  Actual Average Record
Temperature  
Mean Temperature 85 °F 76 °F  
Max Temperature 94 °F 87 °F 106 °F (2016)
Min Temperature 75 °F 64 °F 50 °F (2001)
Degree Days  
Heating Degree Days 0 0  
Month to date heating degree days 9 8  
Since 1 June heating degree days 9 8  
Since 1 July heating degree days 5184 5312  
Cooling Degree Days 20 11  
Month to date cooling degree days 211 177  
Year to date cooling degree days 347 277  
Since 1 June cooling degree days 211 177  
Growing Degree Days 34 (Base 50)    
Moisture  
Dew Point 67 °F    
Average Humidity 60    
Maximum Humidity 79    
Minimum Humidity 41    
Precipitation  
Precipitation 0.00 in 0.16 in 2.67 in (1998)
Month to date precipitation 1.17 3.91  
Year to date precipitation 10.78 15.11  
Sea Level Pressure  
Sea Level Pressure 29.84 in    
Wind  
Wind Speed 15 mph (South)    
Max Wind Speed 30 mph    
Max Gust Speed 41 mph    
Visibility 9 miles    
Events      
T = Trace of Precipitation, MM = Missing Value Source: NWS Daily Summary

Daily Weather History Graph

Daily Weather History Graph

Search for Another Location

Airport or City:

Trip Planner

Search our weather history database for the weather conditions in past years. The results will help you decide how hot, cold, wet, or windy it might be!

Date:

Astronomy

Jun. 22, 2013 Rise Set
Actual Time 6:01 AM CDT 8:56 PM CDT
Civil Twilight 5:28 AM CDT 9:28 PM CDT
Nautical Twilight 4:48 AM CDT 10:09 PM CDT
Astronomical Twilight 4:01 AM CDT 10:56 PM CDT
Moon 8:12 PM CDT (6/22) 5:14 AM CDT (6/22)
Length of Visible Light 15h 59m
Length of Day
14h 55m
Waxing Gibbous, 99% of the Moon is Illuminated
Jun 22
Waxing Gibbous
Jun 23
Full
Jun 29
Last Quarter
Jul 8
New
Jul 15
First Quarter

Hourly Weather History & Observations

Time (CDT) Temp. Heat Index Dew Point Humidity Pressure Visibility Wind Dir Wind Speed Gust Speed Precip Events Conditions
12:52 AM 82.0 °F 85.9 °F 70.0 °F 67% 29.85 in 10.0 mi South 16.1 mph 23.0 mph N/A   Clear
1:52 AM 81.0 °F 84.1 °F 69.1 °F 67% 29.85 in 10.0 mi SSW 12.7 mph - N/A   Clear
2:52 AM 80.1 °F 82.7 °F 68.0 °F 67% 29.85 in 10.0 mi SSW 13.8 mph 19.6 mph N/A   Clear
3:52 AM 80.1 °F 82.7 °F 68.0 °F 67% 29.86 in 10.0 mi SSW 12.7 mph - N/A   Clear
4:52 AM 78.1 °F - 66.9 °F 68% 29.86 in 9.0 mi South 6.9 mph - N/A   Clear
5:52 AM 75.9 °F - 68.0 °F 76% 29.86 in 9.0 mi South 8.1 mph - N/A   Clear
6:52 AM 75.0 °F - 68.0 °F 79% 29.88 in 7.0 mi South 9.2 mph - N/A   Clear
7:52 AM 78.1 °F - 68.0 °F 71% 29.88 in 8.0 mi South 10.4 mph 17.3 mph N/A   Clear
8:52 AM 82.0 °F 84.5 °F 66.9 °F 60% 29.88 in 8.0 mi South 15.0 mph 23.0 mph N/A   Clear
9:52 AM 84.9 °F 87.6 °F 66.9 °F 55% 29.86 in 8.0 mi SSW 16.1 mph 24.2 mph N/A   Clear
10:52 AM 89.1 °F 92.1 °F 66.9 °F 48% 29.88 in 7.0 mi SSW 11.5 mph 21.9 mph N/A   Clear
11:52 AM 93.0 °F 96.4 °F 66.9 °F 42% 29.91 in 7.0 mi SSW 13.8 mph 25.3 mph N/A   Clear
12:52 PM 90.0 °F 92.4 °F 66.0 °F 45% 29.90 in 7.0 mi South 9.2 mph - N/A   Clear
1:52 PM 90.0 °F 92.4 °F 66.0 °F 45% 29.86 in 8.0 mi South 16.1 mph 24.2 mph N/A   Clear
2:52 PM 91.0 °F 94.3 °F 66.9 °F 45% 29.82 in 9.0 mi South 24.2 mph 29.9 mph N/A   Clear
3:52 PM 91.9 °F 95.9 °F 68.0 °F 45% 29.81 in 9.0 mi SSE 20.7 mph 34.5 mph N/A   Clear
4:52 PM 91.9 °F 95.9 °F 68.0 °F 45% 29.77 in 10.0 mi South 20.7 mph 32.2 mph N/A   Clear
5:52 PM 91.9 °F 95.9 °F 68.0 °F 45% 29.76 in 10.0 mi South 21.9 mph 31.1 mph N/A   Clear
6:52 PM 90.0 °F 92.4 °F 66.0 °F 45% 29.76 in 10.0 mi South 20.7 mph 28.8 mph N/A   Clear
7:52 PM 87.1 °F 88.9 °F 64.9 °F 48% 29.77 in 10.0 mi South 16.1 mph 28.8 mph N/A   Clear
8:52 PM 84.0 °F 85.4 °F 64.0 °F 51% 29.78 in 10.0 mi South 13.8 mph 23.0 mph N/A   Clear
9:52 PM 82.9 °F 84.4 °F 64.0 °F 53% 29.80 in 10.0 mi SSE 16.1 mph - N/A   Clear
10:52 PM 81.0 °F 82.7 °F 64.9 °F 58% 29.81 in 10.0 mi South 12.7 mph 20.7 mph N/A   Clear
11:52 PM 81.0 °F 82.7 °F 64.9 °F 58% 29.81 in 10.0 mi South 16.1 mph 26.5 mph N/A   Clear